COSMOS 2251 DEB, 36052

Orbit data source: Space-Track

COSMOS 2251 DEB, 36052 is space debris in LEO originally from a launch on Wed, 16 Jun 1993 UTC launched from the Plesetsk Missile And Space Complex (PKMTR). The debris from Iridium 33, an American commercial communications satellite, has been tracked extensively since its accidental collision with the defunct Russian satellite Cosmos 2251 in 2009. This event, occurring at high speed in low Earth orbit (LEO), generated thousands of pieces of space debris, significantly increasing the risk of further collisions. The Iridium 33 debris cloud has impacted space traffic management and orbital debris mitigation strategies, making it a subject of ongoing study in space situational awareness.

Loading next visibility...
Identifier
36052, 1993-036AXP
Orbit
LEO
Country
Flag of CISCIS
Related business
Manufacturer
Unknown
Mission
Spacecraft
Bus & Motor
Unknown
Mass
Unknown
Launch date (UTC)
1993-06-16 (32 years ago)
Launch vehicle
Unknown
Launch site
Plesetsk Missile And Space Complex (PKMTR)
Object type
Payload
Rocket body
Debris
Shape & HBR
Unknown shape, 0.1 m
Radar Cross Section
Small (<0.1 m²)

Expand to show TLE details & history
Last TLE update: 23 hours ago

TLE from 23 hours ago
0 COSMOS 2251 DEB
1 36052U 93036AXP 25303.62753370  .00762438  00000-0  12863-1 0  9994
2 36052  73.9818  73.1366 0010003 354.2295   5.8800 15.49179142859268
Epoch: 2025-10-30T15:03Z
TLE epoch observation values (Epoch: 2025-10-30T15:03:38.911Z)
Latitude
-0.00006°
Longitude
168.04085°
Altitude
415.105 km
Speed
7.666 km/s
True Right ascension
04h 52m 32s
True Declination
0° 00' 00"
Sunlit
Object was in full shadow at epoch
Visualization orbit readout
Latitude
Unknown
Longitude
Unknown
Altitude
Unknown
Speed
Unknown
Apparent Right ascension
Unknown
Apparent Declination
Unknown
Sunlit
N/A
Visualization observer readout
Local Sidereal Time
09:26:57
Azimuth
Unknown
Elevation
Unknown
Doppler factor
Unknown
Orbital elements
Apogee altitude
423.428 km
Perigee altitude
409.835 km
Semi-major axis
6,794.768 km
Eccentricity
0.001
Inclination
73.9818°
RAAN
73.1366°
Arg. of periapsis
354.2295°
True anomaly
5.89176°
Mean anomaly
5.88°
Eccentric anomaly
5.88588°
Mean motion
3.87508 °/min
Orbital period
92.9 mins
BSTAR
0.012863

Documentation

Showing up to 5 results
|